SIRIUS FM-6 (39360 NORAD) Tracking and Keplerian Element Data

This shows tracking and keplerian element data for the satellite.

Feedback or suggestion? Click here.




ElementValue
Catalog39360
NameSIRIUS FM-6
Epoch Orbit1888
Epoch Day351.08459331
Epoch Year2018
RAAN327.7591
Inclination0.0262
Eccentricity0.0001095
Argument of Perigee191.1532
Mean Anonmoly201.0922
Mean Motion1.00269872
Decay Rate-2E-08
L11 39360U 13058A 18351.08459331 -.00000002 00000-0 00000+0 0 9991
L22 39360 0.0262 327.7591 0001095 191.1532 201.0922 1.00269872 18880

Live tracking and technical data element details for SIRIUS FM-6 (NORAD 39360). SIRIUS FM-6 can be tracked NOW for your location showing map with azimuth and elevation plus other details from your city location.

Track the satellite on the map from your city or location and see movement details for azimuth, elevation, latitude, longitude, range, height, and movement on the map or in text.







IsCatalogInMostPopularTable: catalog: 39360, numindb: 77
Update: records affected: 1



GetName: 39360 SIRIUS FM-6

Hit Count: updated at: Tue, 18 Dec 2018 21:13:10 GMT